Location: Namasale
(1.5000°N, 32.6167°E)
Time: 21:43:42
(UTC+00:00)

Vanguard 3 - Pass Details

Date: 25 April 2021
Orbit: 507 x 3262 km, 33.4° (Epoch: 16 May)

Event Time Altitude Azimuth Distance (km) Brightness Sun altitude
Rises 20:21:22 0° 267° (W) 6,191 11.9 -63.9°
Reaches altitude 10° 20:27:55 10° 284° (WNW) 4,581 11.2 -65.2°
Enters shadow 20:31:15 15° 297° (WNW) 3,850 10.7 -65.9°
